WA0LM Weather Reports


time (UTC)temp
F
wind
direction
speed
knots
gust
knots
rain 1hr
in
rain 24hr
in
rain mn
in
humidity
%
barometer
mb
20260504160349 48 275 16.5 26.9 0.00 0.00 0.00 61 998.3
20260504150814 50 323 18.2 26.9 0.00 0.00 0.00 63 997.4
20260504150310 49 300 20.9 30.4 0.00 0.00 0.00 61 997.6
20260504141241 51 291 21.7 27.8 0.00 0.00 0.00 60 996.4
20260504140737 51 289 14.8 27.8 0.00 0.00 0.00 59 996.4
20260504140232 51 287 14.8 28.7 0.00 0.00 0.00 63 996.2
20260504130701 51 275 13.0 19.1 0.00 0.00 0.00 66 996.0
20260504130157 51 287 12.2 19.1 0.00 0.00 0.00 68 995.9
20260504120121 51 318 19.1 21.7 0.00 0.00 0.00 63 994.9
20260504110549 52 305 12.2 13.9 0.00 0.00 0.00 67 994.0
20260504100510 57 296 16.5 20.9 0.00 0.00 0.00 60 993.2
20260504081903 59 221 9.6 12.2 0.00 0.00 0.00 44 992.7
20260504081400 59 199 2.6 11.3 0.00 0.00 0.00 43 992.6
20260504080856 59 207 7.8 11.3 0.00 0.00 0.00 43 992.9
20260504080353 59 204 5.2 12.2 0.00 0.00 0.00 45 993.0
20260504070321 59 188 2.6 8.7 0.00 0.00 0.00 44 994.4
20260504060241 58 236 10.4 12.2 0.00 0.00 0.00 44 996.0
20260504050709 60 217 7.8 9.6 0.00 0.00 0.00 44 996.9
20260504050206 59 190 5.2 7.8 0.00 0.00 0.00 42 997.0
20260504045704 59 193 3.5 10.4 0.00 0.00 0.00 43 997.3
20260504045204 59 226 2.6 11.3 0.00 0.00 0.00 44 997.0
20260504044702 59 180 2.6 9.6 0.00 0.00 0.00 44 997.2
20260504044159 59 201 3.5 8.7 0.00 0.00 0.00 47 997.5
20260504043655 59 203 3.5 6.1 0.00 0.00 0.00 46 997.6
20260504043152 59 172 1.7 8.7 0.00 0.00 0.00 46 997.6
20260504042650 59 194 3.5 5.2 0.00 0.00 0.00 45 997.9
20260504042146 59 201 1.7 6.1 0.00 0.00 0.00 46 997.9
20260504041642 59 146 1.7 7.0 0.00 0.00 0.00 44 998.0
20260504041138 59 198 2.6 5.2 0.00 0.00 0.00 44 998.2
20260504040636 59 199 5.2 7.8 0.00 0.00 0.00 46 998.3
20260504040133 59 190 2.6 7.8 0.00 0.00 0.00 45 998.4
20260504035629 59 188 1.7 4.3 0.00 0.00 0.00 43 998.7
20260504035126 59 207 5.2 7.8 0.00 0.00 0.00 44 998.8
20260504034624 59 152 0.9 4.3 0.00 0.00 0.00 44 998.8
20260504034120 59 167 1.7 6.1 0.00 0.00 0.00 43 999.0
20260504033618 59 179 1.7 3.5 0.00 0.00 0.00 43 999.2
20260504033115 59 126 1.7 3.5 0.00 0.00 0.00 42 999.2
20260504032612 59 162 0.9 4.3 0.00 0.00 0.00 42 999.3
20260504032109 59 149 1.7 7.0 0.00 0.00 0.00 42 999.5
20260504031606 59 197 3.5 3.5 0.00 0.00 0.00 43 999.5
20260504031102 59 144 2.6 2.6 0.00 0.00 0.00 43 999.6
20260504030559 59 167 2.6 4.3 0.00 0.00 0.00 43 999.8
20260504030056 59 120 3.5 3.5 0.00 0.00 0.00 43 999.9
20260504025553 59 143 0.9 3.5 0.00 0.00 0.00 44 1000.1
20260504025050 59 146 1.7 3.5 0.00 0.00 0.00 43 1000.1
20260504024547 59 144 1.7 2.6 0.00 0.00 0.00 42 1000.3
20260504024044 60 142 1.7 3.5 0.00 0.00 0.00 42 1000.3
20260504023540 60 155 1.7 3.5 0.00 0.00 0.00 41 1000.5
20260504023036 60 159 0.9 2.6 0.00 0.00 0.00 41 1000.5
20260504022532 60 136 3.5 3.5 0.00 0.00 0.00 40 1000.6
20260504022029 60 133 1.7 1.7 0.00 0.00 0.00 40 1000.7
20260504021526 60 163 1.7 2.6 0.00 0.00 0.00 39 1000.8
20260504021023 61 190 0.0 2.6 0.00 0.00 0.00 39 1000.9
20260504020520 61 125 0.9 2.6 0.00 0.00 0.00 39 1000.7
20260504020017 61 100 1.7 2.6 0.00 0.00 0.00 39 1001.0
20260504015513 62 178 1.7 1.7 0.00 0.00 0.00 39 1001.1
20260504015009 62 172 0.9 4.3 0.00 0.00 0.00 38 1001.0
20260504014505 62 124 1.7 2.6 0.00 0.00 0.00 39 1001.2
20260504014002 62 202 2.6 2.6 0.00 0.00 0.00 38 1001.1
20260504013500 63 209 1.7 4.3 0.00 0.00 0.00 40 1001.3
20260504012956 63 213 4.3 5.2 0.00 0.00 0.00 39 1001.3
20260504012454 63 200 2.6 5.2 0.00 0.00 0.00 42 1001.6
20260504011952 63 232 3.5 7.0 0.00 0.00 0.00 38 1001.5
20260504011448 63 219 5.2 6.1 0.00 0.00 0.00 41 1001.6
20260504010944 64 223 5.2 6.1 0.00 0.00 0.00 42 1001.6
20260504010440 64 241 4.3 7.8 0.00 0.00 0.00 43 1001.7
20260504005936 65 236 7.8 9.6 0.00 0.00 0.00 38 1001.8
20260504005433 65 247 5.2 11.3 0.00 0.00 0.00 40 1001.9
20260504004931 65 232 6.1 9.6 0.00 0.00 0.00 40 1001.7
20260504004428 65 262 6.1 11.3 0.00 0.00 0.00 43 1001.9
20260504003925 65 225 4.3 8.7 0.00 0.00 0.00 37 1001.7
20260504003421 66 252 7.0 9.6 0.00 0.00 0.00 37 1001.7
20260504002918 66 261 7.8 10.4 0.00 0.00 0.00 37 1001.9
20260504002415 66 264 11.3 14.8 0.00 0.00 0.00 36 1002.0
20260504001913 67 265 9.6 11.3 0.00 0.00 0.00 37 1001.9
20260504001410 66 272 7.8 10.4 0.00 0.00 0.00 37 1002.0
20260504000906 66 240 9.6 13.0 0.00 0.00 0.00 35 1002.1
20260504000404 66 246 6.1 13.0 0.00 0.00 0.00 40 1002.1
20260503235901 66 264 7.8 13.0 0.00 0.00 0.00 34 1002.1
20260503235359 67 271 10.4 11.3 0.00 0.00 0.00 34 1002.3
20260503234856 66 268 10.4 10.4 0.00 0.00 0.00 35 1002.5
20260503234354 66 258 8.7 13.0 0.00 0.00 0.00 39 1002.5
20260503233851 66 275 13.0 15.6 0.00 0.00 0.00 35 1002.4
20260503233347 66 290 5.2 7.8 0.00 0.00 0.00 38 1002.6
20260503232844 66 264 5.2 7.0 0.00 0.00 0.00 38 1002.4
20260503232341 66 275 5.2 8.7 0.00 0.00 0.00 37 1002.5
20260503231839 66 265 9.6 11.3 0.00 0.00 0.00 33 1002.8
20260503231336 65 277 7.8 13.0 0.00 0.00 0.00 39 1002.7
20260503230832 66 268 10.4 19.1 0.00 0.00 0.00 34 1002.8
20260503230329 67 276 8.7 10.4 0.00 0.00 0.00 35 1002.8
20260503225827 66 284 7.0 12.2 0.00 0.00 0.00 38 1002.8
20260503225322 66 294 9.6 11.3 0.00 0.00 0.00 35 1002.9
20260503224818 65 261 9.6 12.2 0.00 0.00 0.00 36 1003.1
20260503224316 66 284 13.0 14.8 0.00 0.00 0.00 35 1003.0
20260503223814 66 273 11.3 13.9 0.00 0.00 0.00 35 1002.8
20260503223311 66 255 14.8 16.5 0.00 0.00 0.00 35 1003.0
20260503222807 66 273 7.8 13.0 0.00 0.00 0.00 32 1002.8
20260503222305 66 285 10.4 13.0 0.00 0.00 0.00 35 1003.1
20260503221803 66 296 11.3 13.9 0.00 0.00 0.00 35 1003.1
20260503221301 66 259 7.0 13.9 0.00 0.00 0.00 35 1003.0
20260503220757 66 324 9.6 15.6 0.00 0.00 0.00 33 1003.0
20260503220254 66 263 10.4 13.0 0.00 0.00 0.00 33 1003.1
20260503215751 65 262 9.6 14.8 0.00 0.00 0.00 36 1003.2
20260503215248 66 293 5.2 12.2 0.00 0.00 0.00 35 1003.4
20260503214746 66 306 14.8 16.5 0.00 0.00 0.00 36 1003.2
20260503214242 65 265 7.0 11.3 0.00 0.00 0.00 37 1003.2
20260503213741 66 262 9.6 12.2 0.00 0.00 0.00 35 1003.5
20260503213238 66 263 9.6 13.0 0.00 0.00 0.00 35 1003.6
20260503212734 66 330 8.7 12.2 0.00 0.00 0.00 36 1003.6
20260503212232 65 307 12.2 13.9 0.00 0.00 0.00 36 1003.8
20260503211730 65 260 7.8 12.2 0.00 0.00 0.00 32 1003.8
20260503211225 65 291 8.7 11.3 0.00 0.00 0.00 34 1004.0
20260503210721 65 334 11.3 15.6 0.00 0.00 0.00 38 1004.0
20260503210219 65 292 11.3 16.5 0.00 0.00 0.00 38 1003.9
20260503205714 65 281 11.3 16.5 0.00 0.00 0.00 38 1003.9
20260503205210 65 301 7.8 11.3 0.00 0.00 0.00 34 1004.0
20260503204707 65 271 10.4 19.1 0.00 0.00 0.00 34 1004.1
20260503204205 64 246 11.3 14.8 0.00 0.00 0.00 35 1004.1
20260503203701 65 238 11.3 13.9 0.00 0.00 0.00 35 1004.5
20260503203159 64 291 7.8 16.5 0.00 0.00 0.00 37 1004.4
20260503202656 65 308 10.4 11.3 0.00 0.00 0.00 33 1004.4
20260503202154 64 271 15.6 19.1 0.00 0.00 0.00 35 1004.5
20260503201652 64 289 6.1 7.8 0.00 0.00 0.00 39 1004.6
20260503201149 64 264 11.3 13.0 0.00 0.00 0.00 35 1004.6
20260503200645 64 315 13.0 15.6 0.00 0.00 0.00 37 1004.7
20260503200141 64 303 5.2 14.8 0.00 0.00 0.00 37 1004.7
20260503195639 64 279 11.3 16.5 0.00 0.00 0.00 34 1004.8
20260503195136 64 291 11.3 13.0 0.00 0.00 0.00 37 1004.8
20260503194633 64 310 9.6 11.3 0.00 0.00 0.00 36 1005.0
20260503194128 63 334 7.8 13.0 0.00 0.00 0.00 43 1004.9
20260503193625 63 326 7.8 14.8 0.00 0.00 0.00 33 1004.9
20260503193120 64 311 6.1 7.8 0.00 0.00 0.00 37 1005.0
20260503192616 63 352 3.5 10.4 0.00 0.00 0.00 34 1005.1
20260503192112 62 300 13.0 16.5 0.00 0.00 0.00 37 1005.2
20260503191609 63 311 14.8 16.5 0.00 0.00 0.00 38 1005.1
20260503191106 63 293 10.4 12.2 0.00 0.00 0.00 38 1005.2
20260503190604 62 322 9.6 13.0 0.00 0.00 0.00 40 1005.5
20260503190101 62 313 15.6 17.4 0.00 0.00 0.00 37 1005.4
20260503185557 62 284 7.0 7.8 0.00 0.00 0.00 37 1005.3
20260503185056 62 334 10.4 11.3 0.00 0.00 0.00 36 1005.4
20260503184552 62 302 7.0 7.8 0.00 0.00 0.00 39 1005.6
20260503184049 62 263 8.7 10.4 0.00 0.00 0.00 37 1005.6
20260503183545 62 319 8.7 16.5 0.00 0.00 0.00 41 1005.8
20260503183043 62 320 7.8 9.6 0.00 0.00 0.00 34 1005.9
20260503182541 61 286 8.7 11.3 0.00 0.00 0.00 41 1006.1
20260503182039 61 313 13.0 14.8 0.00 0.00 0.00 35 1006.0
20260503181536 61 310 7.0 9.6 0.00 0.00 0.00 37 1006.1
20260503181032 60 345 7.0 13.0 0.00 0.00 0.00 37 1006.5
20260503180529 60 290 13.0 18.2 0.00 0.00 0.00 36 1006.6
20260503180027 61 321 12.2 18.2 0.00 0.00 0.00 38 1006.2
20260503175524 60 339 10.4 15.6 0.00 0.00 0.00 36 1006.5
20260503175021 60 304 11.3 16.5 0.00 0.00 0.00 38 1006.5
20260503174518 60 304 10.4 13.0 0.00 0.00 0.00 35 1006.6
20260503174014 60 308 16.5 17.4 0.00 0.00 0.00 36 1006.6
20260503173509 60 319 20.0 20.0 0.00 0.00 0.00 38 1006.7
20260503173006 60 313 14.8 16.5 0.00 0.00 0.00 40 1006.5
20260503172504 60 344 9.6 13.0 0.00 0.00 0.00 35 1006.6
20260503172001 60 347 9.6 14.8 0.00 0.00 0.00 36 1006.8
20260503171457 60 337 9.6 13.9 0.00 0.00 0.00 40 1006.7
20260503170954 60 315 15.6 20.9 0.00 0.00 0.00 36 1006.6
20260503170450 60 357 7.0 8.7 0.00 0.00 0.00 38 1006.9